TUI2182 LSZH-EGNJ

Flight info

Callsign TUI2182
Flight time 1h 29m
Altitude 36000
Route VEBIT T10 TORPA DCT REKLA DCT RLP DCT ROTSI DCT KOTUN DCT AMAXA DCT VESAN DCT RATUK DCT SOVAT L613 SANDY UN601 LESTA UY250 MAMUL L60 OTBED
Aircraft B738/M-SDE2E3FGHIJ1RWXYZ/LB1

Departure

Time 2026-04-26 14:12
Airport Zürich Airport (LSZH)

Arrival

Time 2026-04-26 15:41
Airport Humberside Airport (EGNJ)
Time Latitude Longitude Altitude Speed Heading
2026-04-26 13:42 47.46101 8.55135 1396 ft 0 kts 65°
2026-04-26 13:56 47.46096 8.55119 1420 ft 2 kts 77°
2026-04-26 13:57 47.46093 8.55096 1401 ft 2 kts 86°
2026-04-26 13:57 47.46094 8.55071 1401 ft 2 kts 103°
2026-04-26 13:57 47.46099 8.55049 1403 ft 2 kts 122°
2026-04-26 13:57 47.46109 8.55029 1403 ft 2 kts 136°
2026-04-26 13:58 47.46122 8.55014 1404 ft 2 kts 147°
2026-04-26 13:58 47.46134 8.55004 1401 ft 1 kts 154°
2026-04-26 13:58 47.46136 8.55002 1400 ft 0 kts 155°
2026-04-26 13:59 47.46135 8.55003 1400 ft 1 kts 155°
2026-04-26 14:00 47.46055 8.55059 1397 ft 7 kts 154°
2026-04-26 14:00 47.46001 8.55098 1393 ft 10 kts 154°
2026-04-26 14:00 47.45956 8.55131 1390 ft 11 kts 154°
2026-04-26 14:01 47.45892 8.55233 1403 ft 11 kts 98°
2026-04-26 14:01 47.45884 8.55341 1391 ft 10 kts 96°
2026-04-26 14:01 47.45877 8.55445 1398 ft 10 kts 95°
2026-04-26 14:01 47.45871 8.55545 1396 ft 10 kts 95°
2026-04-26 14:02 47.45865 8.55644 1399 ft 10 kts 95°
2026-04-26 14:02 47.45858 8.55740 1398 ft 9 kts 96°
2026-04-26 14:02 47.45852 8.55834 1398 ft 9 kts 95°
2026-04-26 14:02 47.45845 8.55926 1398 ft 9 kts 96°
2026-04-26 14:03 47.45838 8.56026 1400 ft 11 kts 96°
2026-04-26 14:03 47.45830 8.56137 1408 ft 11 kts 96°
2026-04-26 14:03 47.45823 8.56247 1404 ft 11 kts 95°
2026-04-26 14:03 47.45814 8.56365 1402 ft 12 kts 96°
2026-04-26 14:04 47.45805 8.56495 1407 ft 13 kts 96°
2026-04-26 14:04 47.45796 8.56624 1400 ft 12 kts 96°
2026-04-26 14:04 47.45787 8.56749 1400 ft 12 kts 95°
2026-04-26 14:04 47.45779 8.56871 1395 ft 12 kts 96°
2026-04-26 14:05 47.45771 8.56981 1395 ft 9 kts 98°
2026-04-26 14:05 47.45748 8.57024 1400 ft 0 kts 159°
2026-04-26 14:09 47.45746 8.57025 1395 ft 2 kts 159°
2026-04-26 14:09 47.45722 8.57033 1405 ft 4 kts 177°
2026-04-26 14:09 47.45693 8.57035 1397 ft 4 kts 177°
2026-04-26 14:10 47.45666 8.57019 1397 ft 4 kts 236°
2026-04-26 14:10 47.45664 8.56987 1397 ft 0 kts 277°
2026-04-26 14:11 47.45669 8.56925 1398 ft 27 kts 276°
2026-04-26 14:11 47.45716 8.56282 1404 ft 97 kts 275°
2026-04-26 14:11 47.45807 8.54972 1400 ft 157 kts 277°
2026-04-26 14:12 47.45982 8.53260 1848 ft 169 kts 278°
2026-04-26 14:12 47.46124 8.51460 2297 ft 193 kts 277°
2026-04-26 14:12 47.46247 8.49406 2915 ft 204 kts 278°
2026-04-26 14:12 47.46137 8.47250 3421 ft 226 kts 250°
2026-04-26 14:13 47.43511 8.44412 4063 ft 264 kts 200°
2026-04-26 14:13 47.42067 8.42611 4587 ft 278 kts 241°
2026-04-26 14:13 47.41188 8.40048 5148 ft 280 kts 242°
2026-04-26 14:14 47.40213 8.37578 6092 ft 276 kts 238°
2026-04-26 14:14 47.39168 8.35159 6822 ft 287 kts 236°
2026-04-26 14:14 47.38197 8.32737 7019 ft 312 kts 242°
2026-04-26 14:14 47.37123 8.29603 7231 ft 339 kts 243°
2026-04-26 14:15 47.36016 8.26378 7422 ft 363 kts 243°
2026-04-26 14:15 47.34837 8.22998 7837 ft 376 kts 243°
2026-04-26 14:15 47.33619 8.19552 8523 ft 380 kts 243°
2026-04-26 14:15 47.32628 8.15943 9338 ft 381 kts 256°
2026-04-26 14:16 47.32302 8.12205 10117 ft 382 kts 270°
2026-04-26 14:16 47.32581 8.08291 10800 ft 385 kts 279°
2026-04-26 14:16 47.33026 8.04386 11470 ft 388 kts 279°
2026-04-26 14:16 47.33443 8.00502 12185 ft 389 kts 278°
2026-04-26 14:17 47.33855 7.96538 12826 ft 391 kts 278°
2026-04-26 14:17 47.34260 7.92545 13572 ft 392 kts 278°
2026-04-26 14:17 47.34661 7.88539 14072 ft 399 kts 278°
2026-04-26 14:17 47.35064 7.84469 14615 ft 401 kts 278°
2026-04-26 14:18 47.35467 7.80381 15127 ft 405 kts 278°
2026-04-26 14:18 47.35866 7.76313 15736 ft 406 kts 278°
2026-04-26 14:18 47.36271 7.72183 16335 ft 408 kts 278°
2026-04-26 14:18 47.36676 7.68034 16878 ft 411 kts 278°
2026-04-26 14:19 47.37083 7.63839 17390 ft 414 kts 278°
2026-04-26 14:19 47.37446 7.59605 17911 ft 417 kts 277°
2026-04-26 14:19 47.37771 7.55329 18446 ft 420 kts 276°
2026-04-26 14:19 47.38084 7.51036 18897 ft 422 kts 276°
2026-04-26 14:20 47.38399 7.46721 19345 ft 424 kts 276°
2026-04-26 14:20 47.38719 7.42385 19798 ft 427 kts 276°
2026-04-26 14:20 47.39044 7.38009 20238 ft 429 kts 276°
2026-04-26 14:20 47.39373 7.33613 20682 ft 431 kts 276°
2026-04-26 14:21 47.39702 7.29203 21106 ft 434 kts 276°
2026-04-26 14:21 47.40032 7.24758 21515 ft 436 kts 276°
2026-04-26 14:21 47.40358 7.20348 21911 ft 439 kts 276°
2026-04-26 14:21 47.40690 7.15861 22316 ft 441 kts 277°
2026-04-26 14:22 47.41189 7.11382 22701 ft 443 kts 282°
2026-04-26 14:22 47.41848 7.06919 23058 ft 445 kts 283°
2026-04-26 14:22 47.42551 7.02434 23353 ft 449 kts 284°
2026-04-26 14:22 47.43254 6.97931 23684 ft 452 kts 283°
2026-04-26 14:23 47.43945 6.93395 23998 ft 453 kts 283°
2026-04-26 14:23 47.44621 6.88845 24325 ft 455 kts 283°
2026-04-26 14:23 47.45290 6.84262 24628 ft 456 kts 283°
2026-04-26 14:23 47.45954 6.79665 24928 ft 458 kts 283°
2026-04-26 14:24 47.46618 6.75059 25211 ft 460 kts 283°
2026-04-26 14:24 47.47277 6.70485 25486 ft 461 kts 283°
2026-04-26 14:24 47.47934 6.65833 25777 ft 463 kts 282°
2026-04-26 14:24 47.48379 6.61100 26094 ft 464 kts 278°
2026-04-26 14:25 47.48716 6.56364 26502 ft 462 kts 277°
2026-04-26 14:25 47.49025 6.51649 26958 ft 459 kts 277°
2026-04-26 14:25 47.49332 6.46964 27399 ft 457 kts 277°
2026-04-26 14:25 47.49646 6.42277 27787 ft 457 kts 277°
2026-04-26 14:26 47.49966 6.37611 28191 ft 456 kts 277°
2026-04-26 14:26 47.50287 6.33006 28623 ft 454 kts 277°
2026-04-26 14:26 47.50612 6.28349 29079 ft 452 kts 278°
2026-04-26 14:26 47.50935 6.23720 29481 ft 451 kts 277°
2026-04-26 14:27 47.51255 6.19111 29906 ft 450 kts 277°
2026-04-26 14:27 47.51624 6.14520 30316 ft 447 kts 282°
2026-04-26 14:27 47.52535 6.10157 30652 ft 444 kts 296°
2026-04-26 14:27 47.54073 6.06222 31027 ft 441 kts 305°
2026-04-26 14:28 47.55932 6.02620 31353 ft 440 kts 309°
2026-04-26 14:28 47.57893 5.99139 31666 ft 439 kts 310°
2026-04-26 14:28 47.59813 5.95686 31984 ft 439 kts 309°
2026-04-26 14:28 47.61705 5.92152 32331 ft 437 kts 307°
2026-04-26 14:29 47.63423 5.88442 32670 ft 436 kts 304°
2026-04-26 14:29 47.65062 5.84653 32970 ft 435 kts 303°
2026-04-26 14:29 47.66669 5.80856 33365 ft 433 kts 303°
2026-04-26 14:29 47.68263 5.77089 33793 ft 429 kts 303°
2026-04-26 14:30 47.69325 5.74594 34031 ft 428 kts 303°
2026-04-26 14:30 47.70921 5.70865 34283 ft 428 kts 304°
2026-04-26 14:30 47.72526 5.67135 34480 ft 429 kts 304°
2026-04-26 14:30 47.74662 5.62183 34771 ft 429 kts 304°
2026-04-26 14:31 47.75749 5.59662 34948 ft 428 kts 304°
2026-04-26 14:31 47.77353 5.55942 35167 ft 428 kts 304°
2026-04-26 14:31 47.78961 5.52204 35380 ft 428 kts 303°
2026-04-26 14:31 47.80571 5.48459 35536 ft 429 kts 303°
2026-04-26 14:32 47.82151 5.44774 35784 ft 428 kts 304°
2026-04-26 14:32 47.83751 5.41040 36046 ft 426 kts 304°
2026-04-26 14:32 47.85347 5.37310 36178 ft 428 kts 304°
2026-04-26 14:33 47.88561 5.29784 36176 ft 429 kts 303°
2026-04-26 14:33 47.91951 5.22521 36175 ft 424 kts 312°
2026-04-26 14:34 47.95923 5.16052 36182 ft 422 kts 313°
2026-04-26 14:34 47.99880 5.09654 36165 ft 420 kts 313°
2026-04-26 14:35 48.03811 5.03202 36182 ft 419 kts 313°
2026-04-26 14:35 48.07727 4.96721 36192 ft 420 kts 313°
2026-04-26 14:36 48.11651 4.90200 36191 ft 421 kts 313°
2026-04-26 14:36 48.15556 4.83696 36194 ft 423 kts 313°
2026-04-26 14:37 48.19506 4.77103 36193 ft 425 kts 313°
2026-04-26 14:37 48.23454 4.70496 36181 ft 425 kts 313°
2026-04-26 14:38 48.27382 4.63909 36190 ft 426 kts 312°
2026-04-26 14:38 48.31327 4.57276 36206 ft 426 kts 312°
2026-04-26 14:39 48.35260 4.50646 36212 ft 426 kts 312°
2026-04-26 14:39 48.39206 4.43977 36209 ft 426 kts 312°
2026-04-26 14:40 48.43139 4.37313 36211 ft 425 kts 312°
2026-04-26 14:40 48.47070 4.30635 36204 ft 425 kts 312°
2026-04-26 14:41 48.50989 4.23960 36210 ft 424 kts 312°
2026-04-26 14:41 48.54906 4.17273 36223 ft 424 kts 312°
2026-04-26 14:42 48.58789 4.10626 36245 ft 424 kts 311°
2026-04-26 14:42 48.62688 4.03934 36231 ft 424 kts 311°
2026-04-26 14:43 48.66578 3.97240 36231 ft 423 kts 311°
2026-04-26 14:43 48.70472 3.90527 36230 ft 423 kts 311°
2026-04-26 14:44 48.74723 3.84468 36226 ft 423 kts 324°
2026-04-26 14:44 48.79532 3.79292 36226 ft 423 kts 324°
2026-04-26 14:45 48.84326 3.74122 36218 ft 423 kts 324°
2026-04-26 14:45 48.89103 3.68914 36225 ft 423 kts 323°
2026-04-26 14:46 48.93879 3.63671 36224 ft 423 kts 323°
2026-04-26 14:46 48.98618 3.58451 36223 ft 423 kts 323°
2026-04-26 14:47 49.03402 3.53170 36231 ft 423 kts 323°
2026-04-26 14:47 49.08172 3.47891 36222 ft 423 kts 323°
2026-04-26 14:48 49.12908 3.42637 36234 ft 423 kts 323°
2026-04-26 14:48 49.17674 3.37336 36228 ft 423 kts 323°
2026-04-26 14:49 49.22442 3.32021 36229 ft 424 kts 323°
2026-04-26 14:49 49.27201 3.26704 36240 ft 424 kts 322°
2026-04-26 14:50 49.31969 3.21362 36229 ft 424 kts 322°
2026-04-26 14:50 49.36702 3.16047 36230 ft 424 kts 322°
2026-04-26 14:51 49.41463 3.10688 36227 ft 424 kts 322°
2026-04-26 14:51 49.46223 3.05316 36234 ft 424 kts 322°
2026-04-26 14:52 49.50987 2.99927 36239 ft 424 kts 322°
2026-04-26 14:52 49.55712 2.94568 36232 ft 425 kts 322°
2026-04-26 14:53 49.60491 2.89135 36239 ft 425 kts 322°
2026-04-26 14:53 49.65218 2.83747 36232 ft 425 kts 322°
2026-04-26 14:54 49.69977 2.78308 36240 ft 425 kts 322°
2026-04-26 14:54 49.74732 2.72863 36244 ft 425 kts 322°
2026-04-26 14:55 49.79501 2.67424 36235 ft 426 kts 322°
2026-04-26 14:55 49.84287 2.62127 36246 ft 426 kts 322°
2026-04-26 14:56 49.89123 2.56786 36245 ft 426 kts 322°
2026-04-26 14:56 49.93957 2.51414 36265 ft 427 kts 322°
2026-04-26 14:57 49.98766 2.46046 36264 ft 427 kts 322°
2026-04-26 14:57 50.03598 2.40636 36262 ft 427 kts 322°
2026-04-26 14:58 50.08431 2.35212 36259 ft 427 kts 322°
2026-04-26 14:58 50.13225 2.29817 36257 ft 427 kts 322°
2026-04-26 14:59 50.18049 2.24375 36262 ft 428 kts 322°
2026-04-26 14:59 50.22875 2.18917 36264 ft 428 kts 322°
2026-04-26 15:00 50.27713 2.13430 36259 ft 429 kts 322°
2026-04-26 15:00 50.32525 2.07960 36260 ft 429 kts 322°
2026-04-26 15:01 50.37353 2.02432 36258 ft 429 kts 320°
2026-04-26 15:01 50.41890 1.96426 36281 ft 428 kts 316°
2026-04-26 15:02 50.46369 1.90212 36264 ft 428 kts 316°
2026-04-26 15:02 50.50850 1.84038 36263 ft 428 kts 316°
2026-04-26 15:03 50.55318 1.77912 36265 ft 429 kts 316°
2026-04-26 15:03 50.59822 1.71729 36264 ft 429 kts 316°
2026-04-26 15:04 50.64329 1.65526 36288 ft 430 kts 316°
2026-04-26 15:04 50.68837 1.59300 36283 ft 430 kts 316°
2026-04-26 15:05 50.73336 1.53068 36274 ft 430 kts 316°
2026-04-26 15:05 50.77803 1.46866 36293 ft 430 kts 316°
2026-04-26 15:06 50.82293 1.40616 36300 ft 430 kts 316°
2026-04-26 15:06 50.86785 1.34347 36296 ft 430 kts 316°
2026-04-26 15:07 50.93522 1.24911 36311 ft 431 kts 316°
2026-04-26 15:07 50.98015 1.18596 36316 ft 431 kts 316°
2026-04-26 15:08 51.02481 1.12304 36315 ft 432 kts 316°
2026-04-26 15:08 51.06929 1.05874 36312 ft 430 kts 310°
2026-04-26 15:09 51.10742 0.98563 36312 ft 429 kts 307°
2026-04-26 15:09 51.14464 0.91126 36267 ft 430 kts 307°
2026-04-26 15:10 51.17591 0.84947 36269 ft 430 kts 307°
2026-04-26 15:10 51.21987 0.76317 36252 ft 431 kts 307°
2026-04-26 15:11 51.25779 0.68858 36239 ft 432 kts 307°
2026-04-26 15:11 51.29543 0.61431 36234 ft 432 kts 307°
2026-04-26 15:12 51.33640 0.54379 36319 ft 434 kts 313°
2026-04-26 15:12 51.38016 0.47692 36312 ft 434 kts 314°
2026-04-26 15:13 51.42383 0.40980 36303 ft 435 kts 313°
2026-04-26 15:13 51.45983 0.35358 36295 ft 435 kts 313°
2026-04-26 15:14 51.50304 0.28555 36292 ft 435 kts 313°
2026-04-26 15:14 51.55319 0.20629 36292 ft 435 kts 313°
2026-04-26 15:15 51.58908 0.14942 36304 ft 435 kts 313°
2026-04-26 15:15 51.63223 0.08089 36294 ft 435 kts 313°
2026-04-26 15:16 51.67537 0.01218 36289 ft 435 kts 313°
2026-04-26 15:16 51.71817 -0.05616 36303 ft 436 kts 312°
2026-04-26 15:17 51.75550 -0.11198 36311 ft 439 kts 320°
2026-04-26 15:17 51.81661 -0.17174 36329 ft 443 kts 327°
2026-04-26 15:18 51.87008 -0.22157 36298 ft 443 kts 326°
2026-04-26 15:18 51.92306 -0.27188 36289 ft 443 kts 326°
2026-04-26 15:19 51.97617 -0.32282 36292 ft 443 kts 326°
2026-04-26 15:19 52.02929 -0.37393 36295 ft 443 kts 326°
2026-04-26 15:20 52.08239 -0.42512 36296 ft 443 kts 326°
2026-04-26 15:20 52.13944 -0.46369 36278 ft 450 kts 345°
2026-04-26 15:21 52.20229 -0.47015 36279 ft 458 kts
2026-04-26 15:21 52.26519 -0.46010 36109 ft 449 kts 359°
2026-04-26 15:22 52.29624 -0.45768 35561 ft 447 kts 358°
2026-04-26 15:22 52.32745 -0.45587 34807 ft 451 kts 358°
2026-04-26 15:22 52.35913 -0.45409 33941 ft 457 kts 359°
2026-04-26 15:22 52.39109 -0.45210 33017 ft 463 kts 359°
2026-04-26 15:23 52.42346 -0.44984 32119 ft 467 kts 359°
2026-04-26 15:23 52.45579 -0.44740 31242 ft 472 kts 359°
2026-04-26 15:23 52.48874 -0.44477 30375 ft 476 kts 359°
2026-04-26 15:23 52.52188 -0.44206 29358 ft 479 kts 360°
2026-04-26 15:24 52.55517 -0.43930 28449 ft 479 kts 360°
2026-04-26 15:24 52.58860 -0.43651 27562 ft 478 kts
2026-04-26 15:24 52.62192 -0.43375 26536 ft 481 kts
2026-04-26 15:24 52.65543 -0.43098 25512 ft 480 kts
2026-04-26 15:25 52.68843 -0.42823 24578 ft 470 kts
2026-04-26 15:25 52.70999 -0.42643 23875 ft 466 kts
2026-04-26 15:25 52.75272 -0.42289 22249 ft 459 kts
2026-04-26 15:25 52.78436 -0.42027 21213 ft 450 kts
2026-04-26 15:26 52.81533 -0.41770 20262 ft 441 kts
2026-04-26 15:26 52.84585 -0.41517 19247 ft 434 kts
2026-04-26 15:26 52.87552 -0.41271 18181 ft 429 kts
2026-04-26 15:26 52.90513 -0.41026 17079 ft 423 kts
2026-04-26 15:27 52.93435 -0.40783 16079 ft 416 kts
2026-04-26 15:27 52.96309 -0.40543 15105 ft 409 kts
2026-04-26 15:27 52.99139 -0.40307 14149 ft 403 kts
2026-04-26 15:27 53.01926 -0.40074 13108 ft 398 kts
2026-04-26 15:28 53.04645 -0.39847 12172 ft 391 kts
2026-04-26 15:28 53.07319 -0.39622 11600 ft 376 kts
2026-04-26 15:28 53.09871 -0.39406 11372 ft 360 kts
2026-04-26 15:28 53.12323 -0.39199 11282 ft 346 kts
2026-04-26 15:29 53.14694 -0.38999 11184 ft 333 kts
2026-04-26 15:29 53.16949 -0.38809 11091 ft 322 kts
2026-04-26 15:29 53.21279 -0.38444 10933 ft 300 kts
2026-04-26 15:30 53.25308 -0.38105 10701 ft 284 kts
2026-04-26 15:30 53.27257 -0.37941 10529 ft 278 kts
2026-04-26 15:30 53.29193 -0.37779 10256 ft 278 kts
2026-04-26 15:31 53.31123 -0.37617 9951 ft 277 kts
2026-04-26 15:31 53.34961 -0.37293 9378 ft 275 kts
2026-04-26 15:31 53.36868 -0.37131 9080 ft 274 kts
2026-04-26 15:32 53.40006 -0.36518 8593 ft 275 kts 17°
2026-04-26 15:32 53.42363 -0.35007 8234 ft 273 kts 19°
2026-04-26 15:32 53.44131 -0.33843 7939 ft 273 kts 19°
2026-04-26 15:33 53.45898 -0.32701 7698 ft 271 kts 19°
2026-04-26 15:33 53.47663 -0.31578 7427 ft 271 kts 19°
2026-04-26 15:33 53.49432 -0.30467 7148 ft 271 kts 19°
2026-04-26 15:33 53.51181 -0.29376 6850 ft 266 kts 19°
2026-04-26 15:34 53.52919 -0.28299 6377 ft 266 kts 18°
2026-04-26 15:34 53.54655 -0.27226 5936 ft 266 kts 18°
2026-04-26 15:34 53.56385 -0.26157 5531 ft 263 kts 18°
2026-04-26 15:34 53.58096 -0.25101 5135 ft 262 kts 18°
2026-04-26 15:35 53.59804 -0.24047 4729 ft 259 kts 18°
2026-04-26 15:35 53.61455 -0.23027 4433 ft 253 kts 18°
2026-04-26 15:35 53.63071 -0.22028 4305 ft 241 kts 18°
2026-04-26 15:35 53.64609 -0.21076 4178 ft 230 kts 18°
2026-04-26 15:36 53.66105 -0.20151 4101 ft 231 kts 17°
2026-04-26 15:36 53.67645 -0.19202 4031 ft 239 kts 17°
2026-04-26 15:36 53.69243 -0.18515 3907 ft 234 kts
2026-04-26 15:36 53.70784 -0.19010 3645 ft 224 kts 322°
2026-04-26 15:37 53.71734 -0.20942 3451 ft 212 kts 287°
2026-04-26 15:37 53.71817 -0.23322 3224 ft 207 kts 252°
2026-04-26 15:37 53.71068 -0.25368 3001 ft 208 kts 219°
2026-04-26 15:37 53.69793 -0.26550 2566 ft 210 kts 201°
2026-04-26 15:38 53.68478 -0.27450 2278 ft 199 kts 201°
2026-04-26 15:38 53.67230 -0.28311 2030 ft 188 kts 201°
2026-04-26 15:38 53.66055 -0.29122 1781 ft 175 kts 200°
2026-04-26 15:38 53.64967 -0.29874 1573 ft 160 kts 200°
2026-04-26 15:39 53.63986 -0.30552 1343 ft 150 kts 200°
2026-04-26 15:39 53.63031 -0.31212 1177 ft 148 kts 201°
2026-04-26 15:39 53.62071 -0.31874 959 ft 148 kts 200°
2026-04-26 15:39 53.61425 -0.32320 819 ft 149 kts 201°
2026-04-26 15:40 53.60149 -0.33202 581 ft 150 kts 202°
2026-04-26 15:40 53.59182 -0.33871 373 ft 148 kts 203°
2026-04-26 15:40 53.58266 -0.34502 134 ft 137 kts 204°
2026-04-26 15:40 53.57456 -0.35069 106 ft 108 kts 202°
2026-04-26 15:41 53.56900 -0.35451 116 ft 64 kts 202°
2026-04-26 15:41 53.56631 -0.35639 124 ft 18 kts 202°
2026-04-26 15:41 53.56564 -0.35666 124 ft 8 kts 179°
2026-04-26 15:41 53.56571 -0.35710 127 ft 8 kts 25°
2026-04-26 15:42 53.56620 -0.35667 126 ft 8 kts 27°
2026-04-26 15:42 53.56671 -0.35623 122 ft 9 kts 27°
2026-04-26 15:42 53.56736 -0.35570 122 ft 11 kts 23°
2026-04-26 15:42 53.56809 -0.35518 120 ft 11 kts 23°
2026-04-26 15:43 53.56890 -0.35461 118 ft 14 kts 23°
2026-04-26 15:43 53.56988 -0.35390 115 ft 15 kts 22°
2026-04-26 15:43 53.57196 -0.35244 109 ft 17 kts 22°
2026-04-26 15:44 53.57306 -0.35167 106 ft 18 kts 22°
2026-04-26 15:44 53.57530 -0.35011 102 ft 18 kts 22°
2026-04-26 15:44 53.57646 -0.34931 101 ft 18 kts 22°
2026-04-26 15:45 53.57909 -0.34751 89 ft 22 kts 22°
2026-04-26 15:45 53.58038 -0.34730 91 ft 10 kts 327°
2026-04-26 15:46 53.58162 -0.34884 86 ft 10 kts 311°
2026-04-26 15:46 53.58203 -0.34925 86 ft 6 kts 28°
2026-04-26 15:46 53.58229 -0.34884 84 ft 4 kts 71°
2026-04-26 15:46 53.58235 -0.34865 85 ft 0 kts 64°